This is the latest recevied weather packets stored in our database for station/object AD0YN. If no packets are shown the sender has not sent any weather packets the latest 10 day(s).
| Time | Temp. | Humidity | Pressure | Rain* | Wind** | Luminosity | Snow |
|---|---|---|---|---|---|---|---|
| 1778027265 | 11.67° C | 72% | 1010.7 hPa | 0 mm | - | 23 W/m² | - |
| 1778026962 | 11.67° C | 72% | 1011 hPa | 0 mm | - | 24 W/m² | - |
| 1778026657 | 11.67° C | 72% | 1010.7 hPa | 0 mm | - | 27 W/m² | - |
| 1778026355 | 11.67° C | 73% | 1010.9 hPa | 0 mm | - | 52 W/m² | - |
| 1778026052 | 11.67° C | 72% | 1011.1 hPa | 0 mm | - | 49 W/m² | - |
| 1778025749 | 11.67° C | 72% | 1011.1 hPa | 0 mm | - | 40 W/m² | - |
| 1778025446 | 11.67° C | 71% | 1011.1 hPa | 0 mm | - | 42 W/m² | - |
| 1778025144 | 11.67° C | 72% | 1011.2 hPa | 0 mm | - | 31 W/m² | - |
| 1778024841 | 11.67° C | 69% | 1011.2 hPa | 0 mm | - | 32 W/m² | - |
| 1778024538 | 11.67° C | 71% | 1011.2 hPa | 0 mm | - | 42 W/m² | - |
| 1778024234 | 11.67° C | 71% | 1010.9 hPa | 0 mm | - | 54 W/m² | - |
| 1778023933 | 11.67° C | 68% | 1010.9 hPa | 0 mm | - | 35 W/m² | - |
| 1778023630 | 12.22° C | 71% | 1011 hPa | 0 mm | - | 32 W/m² | - |
| 1778023327 | 12.22° C | 71% | 1011 hPa | 0 mm | - | 46 W/m² | - |
| 1778023023 | 12.22° C | 68% | 1011 hPa | 0 mm | - | 54 W/m² | - |
| 1778022723 | 12.22° C | 70% | 1011.1 hPa | 0 mm | - | 53 W/m² | - |
| 1778022420 | 12.22° C | 65% | 1011.1 hPa | 0 mm | - | 83 W/m² | - |
| 1778022117 | 12.22° C | 67% | 1011.1 hPa | 0 mm | - | 68 W/m² | - |
| 1778021813 | 12.22° C | 63% | 1011 hPa | 0 mm | - | 44 W/m² | - |
| 1778021509 | 12.22° C | 64% | 1010.9 hPa | 0 mm | - | 53 W/m² | - |
| 1778021205 | 12.22° C | 64% | 1010.8 hPa | 0 mm | - | 80 W/m² | - |
| 1778020904 | 12.22° C | 65% | 1011 hPa | 0 mm | - | 87 W/m² | - |
| 1778020601 | 12.22° C | 63% | 1010.8 hPa | 0 mm | - | 104 W/m² | - |
| 1778020296 | 12.22° C | 62% | 1010.7 hPa | 0 mm | - | 116 W/m² | - |
| 1778019993 | 12.22° C | 64% | 1010.7 hPa | 0 mm | - | 97 W/m² | - |
* Rain latest hour (hover to see other rain measurements)
** Current wind speed in m/s (hover to see current wind gust speed)